星链-33905 (STARLINK-33905)

导读

STARLINK-33905是美国于2025年5月10日发射的星链系列卫星,归属于太空探索技术公司(SpaceX)的星链互联网星座项目。该卫星旨在为全球范围提供高速低延迟的宽带互联网服务,尤其覆盖偏远与基础设施匮乏地区,是星链星座扩容、完善全球覆盖能力的重要组成单元。

基本信息
目录编号:
63881
目录名称:
STARLINK-33905
国际标识:
2025-094T
轨道中心:
EARTH
卫星名称:
星链-33905
卫星全名:
星链-33905 (STARLINK-33905)
卫星状态:
在轨 (已飞行482 天)
发射日期:
2025-05-10 UTC
国别 :
美国 (US)
星等 :
--
轨道信息
数据来源 国际轨道数据
星历时间: 2026-09-04T14:00:02+0800
7小时前
查看轨道信息
半长轴: 6891.304km
偏心率: 0.0002927
轨道倾角: 69.997°
近地点辐角 275.461°
升交点赤经 143.895°
平近点角 268.322°
近地点: 511.149km
远地点: 515.185km
周期: 94.888分钟
每日圈数: 15.175768
详细信息
固有亮度:
5
最大亮度:
2.5
卫星平台:
Starlink V1.0
覆盖范围:
全球
运营商:
太空探索技术公司
运营商所在国:
美国
制造商(研发单位):
太空探索技术公司
制造商所在国:
美国
使用方式:
暂无
卫星简介
Starlink 计划是 SpaceX 推出的全球卫星互联网项目,通过发射低轨道卫星,为全球尤其是偏远地区提供高速、低延迟的互联网服务。自 2019 年起,Starlink 已部署数千颗卫星,旨在缩小全球数字鸿沟,推动互联网普及。该项目还为军事、航空等行业提供通信支持,带来广泛经济效益。
2D轨道图
3D轨道图
轨道高度分析图
轨道倾角分析图
轨道综合分析图
查看轨道综合分析图
交会数据列表
事件ID 空间交会对象 最接近时刻(TCA) 交会距离 交会风险概率(CRP) 交会风险指数(CRI) 操作
CDM_260904-134906-388106-677821
2026-09-04T
13:49:01+0000
2.086 km
极远距离
2.608688E-6 低风险 0.43
CDM_260830-120706-388106-434421
2026-08-30T
12:07:42+0000
2.409 km
极远距离
1.820446E-6 低风险 0.4
CDM_260830-104606-388106-443721
2026-08-30T
10:46:06+0000
2.624 km
极远距离
1.566265E-6 低风险 0.39